Regional Weather Roundup
Issued by NWS Burlington, VT

Home | Current Version | Previous Version | Text Only | Print | Product List | Glossary On
Versions: 1 2 3 4 5 6 7 8 9 10 11 12 13 14 15 16 17 18 19 20 21 22 23 24 25 26 27 28 29 30 31 32 33 34 35 36 37 38 39 40 41 42 43 44 45 46 47 48 49 50
000
ASUS41 KBTV 201810
RWRBTV
VERMONT REGIONAL WEATHER ROUNDUP
NATIONAL WEATHER SERVICE BURLINGTON VT
100 PM EST SAT DEC 20 2014

NOTE: "FAIR" INDICATES FEW OR NO CLOUDS BELOW 12,000 FEET WITH NO
SIGNIFICANT WEATHER AND/OR OBSTRUCTIONS TO VISIBILITY.

* THESE REPORTS ARE NOT UNDER NWS QUALITY CONTROL AND/OR DO NOT
  REPORT WEATHER SUCH AS PRECIPITATION AND FOG.

VTZ001>019-201900-
_____VERMONT_____


CITY           SKY/WX    TMP DP  RH WIND       PRES   REMARKS
BURLINGTON     PTCLDY    25  14  63 CALM      30.29F
6HR MIN TEMP:  10; 6HR MAX TEMP:  26;

MONTPELIER     CLEAR     22  14  71 CALM      30.26F
6HR MIN TEMP:   5; 6HR MAX TEMP:  22;

MORRISVILLE    CLEAR     25  15  66 CALM      30.27F
6HR MIN TEMP:   2; 6HR MAX TEMP:  25;

ST. JOHNSBURY*   N/A     25  15  66 MISG      30.25F
6HR MIN TEMP:   8; 6HR MAX TEMP:  25;

LYNDONVILLE*   FAIR      24  13  63 CALM      30.24S
6HR MIN TEMP:   6; 6HR MAX TEMP:  24;

MIDDLEBURY*    FAIR      25  15  66 CALM      30.27S
6HR MIN TEMP:  11; 6HR MAX TEMP:  25;

RUTLAND*       CLEAR     25  16  68 N3        30.24S
6HR MIN TEMP:  10; 6HR MAX TEMP:  25;

SPRINGFIELD    CLEAR     29  15  56 CALM      30.26F
6HR MIN TEMP:  15; 6HR MAX TEMP:  30;

HIGHGATE*      FAIR      20  15  79 CALM      30.32R
6HR MIN TEMP:   6; 6HR MAX TEMP:  21;

NEWPORT*       FAIR      17  13  82 CALM      30.26S
6HR MIN TEMP:   0; 6HR MAX TEMP:  17;

BENNINGTON     CLEAR     27  17  66 NW6       30.24F
6HR MIN TEMP:  14; 6HR MAX TEMP:  28;


_____LAKE CHAMPLAIN_____


CITY           SKY/WX    TMP DP  RH WIND       PRES   REMARKS
COLCHESTER RF*   N/A     25  19  80 NE5         N/A

$$

NYZ007-026>031-035-052-083-201900-
_____NORTHERN NEW YORK_____


CITY           SKY/WX    TMP DP  RH WIND       PRES   REMARKS
PLATTSBURGH    CLOUDY    21  17  84 CALM      30.31S
6HR MIN TEMP:  11; 6HR MAX TEMP:  21;

SARANAC LAKE   CLEAR     21  17  84 SW3       30.17F
6HR MIN TEMP:   4; 6HR MAX TEMP:  21;

MASSENA        CLOUDY    20  16  84 N6        30.33F
6HR MIN TEMP:   1; 6HR MAX TEMP:  21; 6HR PCP: TRACE;

OGDENSBURG*    CLEAR     25  18  74 CALM      30.30F
POTSDAM*       CLEAR     21  16  79 CALM      30.29F
WATERTOWN      CLEAR     28  16  60 NE3       30.29F
6HR MIN TEMP:  13; 6HR MAX TEMP:  28;

FT DRUM        CLEAR     23  13  64 CALM      30.26F
6HR MIN TEMP:   8; 6HR MAX TEMP:  23; 6HR PCP: TRACE;

ALBANY         MOCLDY    29  17  61 CALM      30.30S
6HR MIN TEMP:  23; 6HR MAX TEMP:  29;

GLENS FALLS    CLEAR     27  19  72 CALM      30.28F
6HR MIN TEMP:  17; 6HR MAX TEMP:  28;


$$
NHZ002-005-011-201900-
_____NEW HAMPSHIRE_____


CITY           SKY/WX    TMP DP  RH WIND       PRES   REMARKS
LEBANON        CLEAR     28  16  60 CALM      30.25F
6HR MIN TEMP:  11; 6HR MAX TEMP:  28;

KEENE          CLEAR     34  18  51 CALM      30.25S
6HR MIN TEMP:  18; 6HR MAX TEMP:  34;

MT WASHINGTON  PTCLDY    23   5  46 E15         N/A  WCI  10
6HR MIN TEMP:  21; 6HR MAX TEMP:  24;

PLYMOUTH       FAIR      32  22  67 NE3       30.25F
6HR MIN TEMP:  15; 6HR MAX TEMP:  32;

WHITEFIELD     CLEAR     25  18  74 CALM      30.23F
6HR MIN TEMP:  10; 6HR MAX TEMP:  25;


$$

_____REGIONAL QUEBEC LOCATIONS_____


CITY           SKY/WX    TMP DP  RH WIND       PRES   REMARKS
MONTREAL       PTCLDY    18  10  73 N8        30.34S
QUEBEC CITY    LGT SNOW  16  12  86 CALM      30.35F FOG
SHERBROOKE     PTCLDY    14  14 100 S2        30.27F

_____REGIONAL ONTARIO LOCATIONS_____


CITY           SKY/WX    TMP DP  RH WIND       PRES   REMARKS

______KEY______
VSB  - VISIBILITY IN MILES
WCI  - WIND CHILL INDEX
HX   - HEAT INDEX
$$
NNNN


USA.gov is the U.S. government's official web portal to all federal, state and local government web resources and services.